| time (UTC) | temp F | wind direction | speed knots | gust knots | rain 1hr in | rain 24hr in | rain mn in | humidity % | barometer mb |
| 20260504002352 | 55 | 236 | 0.9 | 0.9 | 0.00 | 0.00 | 0.00 | 49 | 1005.0 |
| 20260504001849 | 55 | 221 | 0.9 | 0.9 | 0.00 | 0.00 | 0.00 | 48 | 1004.9 |
| 20260504001347 | 56 | 246 | 0.9 | 0.9 | 0.00 | 0.00 | 0.00 | 48 | 1005.1 |
| 20260504000843 | 56 | 232 | 0.9 | 1.7 | 0.00 | 0.00 | 0.00 | 48 | 1005.0 |
| 20260504000340 | 57 | 236 | 0.0 | 0.9 | 0.00 | 0.00 | 0.00 | 46 | 1005.2 |
| 20260503235838 | 57 | 225 | 2.6 | 2.6 | 0.00 | 0.00 | 0.00 | 45 | 1005.1 |
| 20260503235335 | 57 | 233 | 0.9 | 0.9 | 0.00 | 0.00 | 0.00 | 45 | 1005.0 |
| 20260503234833 | 57 | 237 | 1.7 | 1.7 | 0.00 | 0.00 | 0.00 | 45 | 1005.1 |
| 20260503234330 | 57 | 200 | 2.6 | 2.6 | 0.00 | 0.00 | 0.00 | 45 | 1005.1 |
| 20260503233828 | 57 | 241 | 0.0 | 0.9 | 0.00 | 0.00 | 0.00 | 46 | 1005.2 |
| 20260503233324 | 57 | 239 | 0.0 | 0.0 | 0.00 | 0.00 | 0.00 | 47 | 1005.0 |
| 20260503232820 | 57 | 222 | 1.7 | 1.7 | 0.00 | 0.00 | 0.00 | 45 | 1005.3 |
| 20260503232318 | 57 | 213 | 1.7 | 1.7 | 0.00 | 0.00 | 0.00 | 45 | 1005.3 |
| 20260503231816 | 57 | 244 | 0.9 | 0.9 | 0.00 | 0.00 | 0.00 | 46 | 1005.2 |
| 20260503231312 | 57 | 239 | 0.9 | 0.9 | 0.00 | 0.00 | 0.00 | 46 | 1005.3 |
| 20260503230808 | 57 | 247 | 1.7 | 1.7 | 0.00 | 0.00 | 0.00 | 45 | 1005.3 |
| 20260503230306 | 57 | 247 | 1.7 | 1.7 | 0.00 | 0.00 | 0.00 | 45 | 1005.5 |
| 20260503225803 | 57 | 225 | 1.7 | 1.7 | 0.00 | 0.00 | 0.00 | 44 | 1005.5 |
| 20260503225258 | 58 | 238 | 0.0 | 0.9 | 0.00 | 0.00 | 0.00 | 44 | 1005.6 |
| 20260503224755 | 58 | 227 | 0.9 | 0.9 | 0.00 | 0.00 | 0.00 | 45 | 1005.5 |
| 20260503224253 | 58 | 244 | 1.7 | 1.7 | 0.00 | 0.00 | 0.00 | 45 | 1005.4 |
| 20260503223750 | 58 | 204 | 3.5 | 4.3 | 0.00 | 0.00 | 0.00 | 43 | 1005.8 |
| 20260503223248 | 58 | 209 | 3.5 | 4.3 | 0.00 | 0.00 | 0.00 | 42 | 1005.6 |
| 20260503222744 | 58 | 245 | 0.9 | 0.9 | 0.00 | 0.00 | 0.00 | 45 | 1005.7 |
| 20260503222242 | 59 | 240 | 2.6 | 2.6 | 0.00 | 0.00 | 0.00 | 44 | 1005.8 |
| 20260503221740 | 58 | 229 | 0.9 | 0.9 | 0.00 | 0.00 | 0.00 | 43 | 1005.9 |
| 20260503221237 | 58 | 243 | 1.7 | 1.7 | 0.00 | 0.00 | 0.00 | 44 | 1005.7 |
| 20260503220734 | 59 | 232 | 1.7 | 2.6 | 0.00 | 0.00 | 0.00 | 44 | 1005.8 |
| 20260503220231 | 58 | 241 | 0.9 | 0.9 | 0.00 | 0.00 | 0.00 | 43 | 1005.9 |
| 20260503215727 | 58 | 213 | 2.6 | 2.6 | 0.00 | 0.00 | 0.00 | 42 | 1006.0 |
| 20260503215225 | 58 | 217 | 0.9 | 1.7 | 0.00 | 0.00 | 0.00 | 43 | 1005.9 |
| 20260503214723 | 59 | 224 | 1.7 | 1.7 | 0.00 | 0.00 | 0.00 | 44 | 1005.7 |
| 20260503214219 | 59 | 223 | 1.7 | 1.7 | 0.00 | 0.00 | 0.00 | 46 | 1006.0 |
| 20260503213717 | 59 | 250 | 1.7 | 1.7 | 0.00 | 0.00 | 0.00 | 42 | 1006.0 |
| 20260503213214 | 59 | 219 | 1.7 | 1.7 | 0.00 | 0.00 | 0.00 | 43 | 1005.7 |
| 20260503212711 | 59 | 210 | 4.3 | 7.0 | 0.00 | 0.00 | 0.00 | 41 | 1005.9 |
| 20260503212209 | 59 | 236 | 1.7 | 2.6 | 0.00 | 0.00 | 0.00 | 43 | 1005.8 |
| 20260503211706 | 59 | 214 | 1.7 | 1.7 | 0.00 | 0.00 | 0.00 | 42 | 1005.8 |
| 20260503211202 | 60 | 266 | 0.9 | 1.7 | 0.00 | 0.00 | 0.00 | 43 | 1006.1 |
| 20260503210658 | 59 | 227 | 3.5 | 4.3 | 0.00 | 0.00 | 0.00 | 42 | 1006.0 |
| 20260503210155 | 59 | 247 | 4.3 | 5.2 | 0.00 | 0.00 | 0.00 | 42 | 1006.0 |
| 20260503205650 | 59 | 226 | 2.6 | 2.6 | 0.00 | 0.00 | 0.00 | 40 | 1006.0 |
| 20260503205147 | 58 | 227 | 2.6 | 2.6 | 0.00 | 0.00 | 0.00 | 42 | 1006.2 |
| 20260503204643 | 59 | 244 | 1.7 | 1.7 | 0.00 | 0.00 | 0.00 | 41 | 1006.0 |
| 20260503204141 | 60 | 232 | 5.2 | 6.1 | 0.00 | 0.00 | 0.00 | 40 | 1006.2 |
| 20260503203638 | 60 | 236 | 2.6 | 2.6 | 0.00 | 0.00 | 0.00 | 40 | 1006.2 |
| 20260503203136 | 59 | 226 | 3.5 | 5.2 | 0.00 | 0.00 | 0.00 | 42 | 1006.0 |
| 20260503202633 | 59 | 247 | 0.0 | 0.9 | 0.00 | 0.00 | 0.00 | 41 | 1006.2 |
| 20260503202131 | 60 | 235 | 0.9 | 1.7 | 0.00 | 0.00 | 0.00 | 41 | 1006.1 |
| 20260503201629 | 59 | 226 | 4.3 | 5.2 | 0.00 | 0.00 | 0.00 | 41 | 1006.3 |
| 20260503201126 | 60 | 221 | 1.7 | 1.7 | 0.00 | 0.00 | 0.00 | 43 | 1006.3 |
| 20260503200622 | 61 | 262 | 3.5 | 5.2 | 0.00 | 0.00 | 0.00 | 40 | 1006.4 |
| 20260503200118 | 61 | 246 | 0.9 | 0.9 | 0.00 | 0.00 | 0.00 | 41 | 1006.5 |
| 20260503195615 | 62 | 220 | 4.3 | 6.1 | 0.00 | 0.00 | 0.00 | 38 | 1006.5 |
| 20260503195112 | 61 | 250 | 1.7 | 1.7 | 0.00 | 0.00 | 0.00 | 41 | 1006.5 |
| 20260503194609 | 60 | 252 | 2.6 | 5.2 | 0.00 | 0.00 | 0.00 | 38 | 1006.5 |
| 20260503194104 | 60 | 240 | 1.7 | 1.7 | 0.00 | 0.00 | 0.00 | 42 | 1006.8 |
| 20260503193601 | 60 | 217 | 1.7 | 1.7 | 0.00 | 0.00 | 0.00 | 43 | 1006.9 |
| 20260503193056 | 60 | 221 | 3.5 | 5.2 | 0.00 | 0.00 | 0.00 | 42 | 1007.0 |
| 20260503192553 | 59 | 214 | 3.5 | 4.3 | 0.00 | 0.00 | 0.00 | 43 | 1007.0 |
| 20260503192049 | 60 | 245 | 0.9 | 0.9 | 0.00 | 0.00 | 0.00 | 44 | 1007.1 |
| 20260503191546 | 60 | 245 | 2.6 | 4.3 | 0.00 | 0.00 | 0.00 | 41 | 1007.2 |
| 20260503191043 | 59 | 252 | 2.6 | 2.6 | 0.00 | 0.00 | 0.00 | 42 | 1007.3 |
| 20260503190539 | 60 | 231 | 2.6 | 2.6 | 0.00 | 0.00 | 0.00 | 41 | 1007.3 |
| 20260503190037 | 62 | 211 | 2.6 | 4.3 | 0.00 | 0.00 | 0.00 | 38 | 1007.3 |
| 20260503185533 | 61 | 244 | 2.6 | 2.6 | 0.00 | 0.00 | 0.00 | 43 | 1007.5 |
| 20260503185033 | 61 | 212 | 4.3 | 6.1 | 0.00 | 0.00 | 0.00 | 41 | 1007.6 |
| 20260503184529 | 59 | 230 | 2.6 | 2.6 | 0.00 | 0.00 | 0.00 | 43 | 1007.7 |
| 20260503184026 | 59 | 254 | 1.7 | 1.7 | 0.00 | 0.00 | 0.00 | 45 | 1007.6 |
| 20260503183522 | 61 | 238 | 5.2 | 7.8 | 0.00 | 0.00 | 0.00 | 42 | 1007.7 |
| 20260503183020 | 60 | 239 | 0.9 | 1.7 | 0.00 | 0.00 | 0.00 | 45 | 1008.0 |
| 20260503182518 | 60 | 235 | 2.6 | 2.6 | 0.00 | 0.00 | 0.00 | 45 | 1008.0 |
| 20260503182015 | 59 | 226 | 1.7 | 2.6 | 0.00 | 0.00 | 0.00 | 42 | 1008.1 |
| 20260503181512 | 59 | 221 | 4.3 | 5.2 | 0.00 | 0.00 | 0.00 | 43 | 1007.7 |
| 20260503181008 | 59 | 237 | 2.6 | 4.3 | 0.00 | 0.00 | 0.00 | 45 | 1007.8 |
| 20260503180506 | 59 | 228 | 3.5 | 4.3 | 0.00 | 0.00 | 0.00 | 43 | 1007.8 |
| 20260503180003 | 58 | 218 | 2.6 | 4.3 | 0.00 | 0.00 | 0.00 | 43 | 1008.2 |
| 20260503175501 | 59 | 245 | 2.6 | 2.6 | 0.00 | 0.00 | 0.00 | 43 | 1008.2 |
| 20260503174957 | 60 | 245 | 2.6 | 4.3 | 0.00 | 0.00 | 0.00 | 46 | 1008.3 |
| 20260503174455 | 59 | 228 | 4.3 | 5.2 | 0.00 | 0.00 | 0.00 | 45 | 1008.2 |
| 20260503173950 | 58 | 228 | 2.6 | 4.3 | 0.00 | 0.00 | 0.00 | 48 | 1008.3 |
| 20260503173446 | 58 | 241 | 1.7 | 1.7 | 0.00 | 0.00 | 0.00 | 45 | 1008.6 |
| 20260503172943 | 58 | 242 | 2.6 | 2.6 | 0.00 | 0.00 | 0.00 | 46 | 1008.4 |
| 20260503172440 | 59 | 221 | 3.5 | 4.3 | 0.00 | 0.00 | 0.00 | 43 | 1008.4 |
| 20260503171937 | 60 | 280 | 3.5 | 4.3 | 0.00 | 0.00 | 0.00 | 45 | 1008.4 |
| 20260503171433 | 58 | 216 | 3.5 | 4.3 | 0.00 | 0.00 | 0.00 | 48 | 1008.6 |
| 20260503170931 | 59 | 244 | 0.9 | 1.7 | 0.00 | 0.00 | 0.00 | 52 | 1008.8 |
| 20260503170427 | 60 | 239 | 2.6 | 2.6 | 0.00 | 0.00 | 0.00 | 46 | 1008.7 |
| 20260503150820 | 54 | 259 | 2.6 | 2.6 | 0.00 | 0.00 | 0.00 | 51 | 1009.8 |
| 20260503150315 | 55 | 230 | 2.6 | 4.3 | 0.00 | 0.00 | 0.00 | 49 | 1009.7 |
| 20260503140240 | 50 | 234 | 0.9 | 0.9 | 0.00 | 0.00 | 0.00 | 59 | 1009.9 |
| 20260503131209 | 46 | 239 | 0.0 | 0.0 | 0.00 | 0.00 | 0.00 | 66 | 1010.3 |
| 20260503130707 | 47 | 233 | 0.9 | 1.7 | 0.00 | 0.00 | 0.00 | 65 | 1010.3 |
| 20260503130204 | 47 | 232 | 0.0 | 0.9 | 0.00 | 0.00 | 0.00 | 66 | 1010.1 |
| 20260503120130 | 36 | 236 | 0.0 | 0.0 | 0.00 | 0.00 | 0.00 | 98 | 1010.1 |
| 20260503110557 | 30 | 239 | 0.0 | 0.0 | 0.00 | 0.00 | 0.00 | 99 | 1009.8 |
| 20260503090444 | 31 | 239 | 0.0 | 0.0 | 0.00 | 0.00 | 0.00 | 98 | 1009.0 |
| 20260503081410 | 31 | 239 | 0.0 | 0.0 | 0.00 | 0.00 | 0.00 | 97 | 1009.3 |
| 20260503080908 | 31 | 239 | 0.0 | 0.0 | 0.00 | 0.00 | 0.00 | 97 | 1009.2 |
| 20260503080404 | 31 | 239 | 0.0 | 0.0 | 0.00 | 0.00 | 0.00 | 97 | 1009.4 |
| 20260503072840 | 32 | 239 | 0.0 | 0.0 | 0.00 | 0.00 | 0.00 | 97 | 1009.1 |
| 20260503072338 | 32 | 239 | 0.0 | 0.0 | 0.00 | 0.00 | 0.00 | 97 | 1009.2 |
| 20260503071834 | 32 | 239 | 0.0 | 0.0 | 0.00 | 0.00 | 0.00 | 96 | 1009.1 |
| 20260503071331 | 33 | 239 | 0.0 | 0.0 | 0.00 | 0.00 | 0.00 | 96 | 1009.0 |
| 20260503070827 | 33 | 239 | 0.0 | 0.0 | 0.00 | 0.00 | 0.00 | 96 | 1009.1 |
| 20260503070326 | 33 | 239 | 0.0 | 0.0 | 0.00 | 0.00 | 0.00 | 96 | 1009.2 |
| 20260503060250 | 35 | 239 | 0.0 | 0.0 | 0.00 | 0.00 | 0.00 | 95 | 1009.3 |
| 20260503054738 | 35 | 239 | 0.0 | 0.0 | 0.00 | 0.00 | 0.00 | 95 | 1009.4 |
| 20260503054234 | 35 | 239 | 0.0 | 0.0 | 0.00 | 0.00 | 0.00 | 95 | 1009.4 |
| 20260503053732 | 35 | 239 | 0.0 | 0.0 | 0.00 | 0.00 | 0.00 | 95 | 1009.6 |
| 20260503053231 | 35 | 239 | 0.0 | 0.0 | 0.00 | 0.00 | 0.00 | 94 | 1009.5 |
| 20260503052727 | 36 | 239 | 0.0 | 0.0 | 0.00 | 0.00 | 0.00 | 94 | 1009.4 |
| 20260503052223 | 36 | 241 | 0.0 | 0.0 | 0.00 | 0.00 | 0.00 | 94 | 1009.3 |
| 20260503051718 | 36 | 241 | 0.0 | 0.0 | 0.00 | 0.00 | 0.00 | 94 | 1009.4 |
| 20260503051217 | 36 | 241 | 0.0 | 0.0 | 0.00 | 0.00 | 0.00 | 93 | 1009.5 |
| 20260503050713 | 36 | 241 | 0.0 | 0.0 | 0.00 | 0.00 | 0.00 | 93 | 1009.5 |
| 20260503050209 | 36 | 241 | 0.0 | 0.0 | 0.00 | 0.00 | 0.00 | 93 | 1009.5 |
| 20260503045707 | 36 | 241 | 0.0 | 0.0 | 0.00 | 0.00 | 0.00 | 93 | 1009.6 |
| 20260503045205 | 37 | 241 | 0.0 | 0.0 | 0.00 | 0.00 | 0.00 | 93 | 1009.4 |
| 20260503044701 | 37 | 241 | 0.0 | 0.0 | 0.00 | 0.00 | 0.00 | 92 | 1009.4 |
| 20260503044158 | 37 | 241 | 0.0 | 0.0 | 0.00 | 0.00 | 0.00 | 92 | 1009.5 |
| 20260503043655 | 37 | 241 | 0.0 | 0.0 | 0.00 | 0.00 | 0.00 | 92 | 1009.5 |
| 20260503043152 | 37 | 241 | 0.0 | 0.0 | 0.00 | 0.00 | 0.00 | 92 | 1009.3 |
| 20260503042648 | 37 | 241 | 0.0 | 0.0 | 0.00 | 0.00 | 0.00 | 92 | 1009.3 |
| 20260503042145 | 37 | 241 | 0.0 | 0.0 | 0.00 | 0.00 | 0.00 | 91 | 1009.5 |
| 20260503041641 | 37 | 241 | 0.0 | 0.0 | 0.00 | 0.00 | 0.00 | 91 | 1009.3 |
| 20260503041139 | 37 | 241 | 0.0 | 0.0 | 0.00 | 0.00 | 0.00 | 91 | 1009.5 |
| 20260503040636 | 37 | 241 | 0.0 | 0.0 | 0.00 | 0.00 | 0.00 | 92 | 1009.6 |
| 20260503040134 | 37 | 241 | 0.0 | 0.0 | 0.00 | 0.00 | 0.00 | 91 | 1009.6 |
| 20260503035630 | 37 | 241 | 0.0 | 0.0 | 0.00 | 0.02 | 0.02 | 91 | 1009.5 |
| 20260503035128 | 37 | 241 | 0.0 | 0.0 | 0.00 | 0.02 | 0.02 | 92 | 1009.7 |
| 20260503034625 | 37 | 241 | 0.0 | 0.0 | 0.00 | 0.02 | 0.02 | 92 | 1009.7 |
| 20260503034122 | 37 | 241 | 0.0 | 0.0 | 0.00 | 0.02 | 0.02 | 92 | 1009.7 |
| 20260503033619 | 37 | 241 | 0.0 | 0.0 | 0.00 | 0.02 | 0.02 | 92 | 1009.7 |
| 20260503033117 | 37 | 241 | 0.0 | 0.0 | 0.00 | 0.02 | 0.02 | 92 | 1009.6 |
| 20260503032615 | 37 | 241 | 0.0 | 0.0 | 0.00 | 0.02 | 0.02 | 92 | 1009.7 |
| 20260503032113 | 37 | 241 | 0.0 | 0.0 | 0.00 | 0.02 | 0.02 | 92 | 1009.6 |
| 20260503031610 | 37 | 241 | 0.0 | 0.0 | 0.00 | 0.02 | 0.02 | 92 | 1009.8 |
| 20260503031108 | 37 | 241 | 0.0 | 0.0 | 0.00 | 0.02 | 0.02 | 92 | 1009.8 |
| 20260503030604 | 37 | 241 | 0.0 | 0.0 | 0.00 | 0.02 | 0.02 | 92 | 1009.6 |
| 20260503030101 | 37 | 241 | 0.0 | 0.0 | 0.00 | 0.02 | 0.02 | 92 | 1009.8 |
| 20260503025557 | 37 | 241 | 0.0 | 0.0 | 0.00 | 0.02 | 0.02 | 92 | 1009.8 |
| 20260503025055 | 37 | 241 | 0.0 | 0.0 | 0.00 | 0.02 | 0.02 | 92 | 1009.8 |
| 20260503024551 | 37 | 241 | 0.0 | 0.0 | 0.00 | 0.02 | 0.02 | 92 | 1009.9 |
| 20260503024048 | 38 | 241 | 0.0 | 0.0 | 0.00 | 0.02 | 0.02 | 91 | 1009.8 |
| 20260503023545 | 38 | 241 | 0.0 | 0.0 | 0.00 | 0.02 | 0.02 | 91 | 1009.7 |
| 20260503023042 | 38 | 241 | 0.0 | 0.0 | 0.00 | 0.02 | 0.02 | 91 | 1009.7 |
| 20260503022538 | 38 | 241 | 0.0 | 0.0 | 0.00 | 0.02 | 0.02 | 91 | 1009.8 |
| 20260503022033 | 38 | 241 | 0.0 | 0.0 | 0.00 | 0.02 | 0.02 | 91 | 1009.8 |
| 20260503021530 | 38 | 241 | 0.0 | 0.0 | 0.00 | 0.02 | 0.02 | 91 | 1009.8 |
| 20260503021027 | 38 | 241 | 0.0 | 0.0 | 0.00 | 0.02 | 0.02 | 90 | 1009.9 |
| 20260503020524 | 38 | 241 | 0.0 | 0.0 | 0.00 | 0.02 | 0.02 | 90 | 1009.9 |
| 20260503020021 | 38 | 241 | 0.0 | 0.0 | 0.00 | 0.02 | 0.02 | 90 | 1010.0 |
| 20260503015518 | 39 | 241 | 0.0 | 0.0 | 0.00 | 0.02 | 0.02 | 90 | 1009.9 |
| 20260503015015 | 39 | 241 | 0.0 | 0.0 | 0.00 | 0.02 | 0.02 | 89 | 1009.7 |
| 20260503014511 | 39 | 241 | 0.0 | 0.0 | 0.00 | 0.02 | 0.02 | 89 | 1009.9 |
| 20260503014009 | 39 | 241 | 0.0 | 0.0 | 0.00 | 0.02 | 0.02 | 89 | 1009.9 |
| 20260503013506 | 39 | 241 | 0.0 | 0.0 | 0.00 | 0.02 | 0.02 | 89 | 1009.8 |
| 20260503013004 | 39 | 241 | 0.0 | 0.0 | 0.00 | 0.02 | 0.02 | 89 | 1010.0 |
| 20260503012501 | 39 | 241 | 0.0 | 0.0 | 0.00 | 0.02 | 0.02 | 88 | 1009.9 |
| 20260503011956 | 39 | 241 | 0.0 | 0.0 | 0.00 | 0.02 | 0.02 | 88 | 1009.7 |
| 20260503011454 | 39 | 241 | 0.0 | 0.0 | 0.00 | 0.02 | 0.02 | 88 | 1009.8 |
| 20260503010951 | 39 | 241 | 0.0 | 0.0 | 0.00 | 0.02 | 0.02 | 88 | 1009.9 |
| 20260503010447 | 39 | 241 | 0.0 | 0.0 | 0.00 | 0.02 | 0.02 | 88 | 1009.8 |
| 20260503005945 | 39 | 241 | 0.0 | 0.0 | 0.00 | 0.02 | 0.02 | 87 | 1009.7 |
| 20260503005442 | 39 | 241 | 0.0 | 0.0 | 0.00 | 0.02 | 0.02 | 87 | 1009.7 |
| 20260503004939 | 39 | 241 | 0.0 | 0.0 | 0.00 | 0.02 | 0.02 | 87 | 1009.7 |
| 20260503004435 | 40 | 241 | 0.0 | 0.0 | 0.00 | 0.02 | 0.02 | 87 | 1009.7 |
| 20260503003933 | 40 | 241 | 0.0 | 0.0 | 0.00 | 0.02 | 0.02 | 86 | 1009.9 |
| 20260503003430 | 40 | 241 | 0.0 | 0.0 | 0.00 | 0.02 | 0.02 | 85 | 1009.9 |
| 20260503002927 | 40 | 241 | 0.0 | 0.0 | 0.00 | 0.02 | 0.02 | 85 | 1009.8 |